Tracking 35331 objects as of 16-Sep-2026
HD Live streaming from Space Station
objects crossing your sky now

KUIPER-00617

Track KUIPER-00617 now!
10-day predictions
KUIPER-00617 is classified as:


NORAD ID: 69776
Int'l Code: 2026-151P
Launch date: July 2, 2026
Source: United States (US)
Launch site: AIR FORCE EASTERN TEST RANGE (AFETR)
Your satellite tracking list
Your tracking list is empty




NASA's NSSDC Master Catalog

Two Line Element Set (TLE):
1 69776U 26151P   26259.25002315 -.00006732  00000-0 -85589-3 0  9990
2 69776  51.8988 242.9928 0000804 168.5973  52.3048 14.79887138  5882
Source of the keplerian elements: AFSPC